Regional Weather Roundup
Issued by NWS Wakefield, VA

Home | Current Version | Previous Version | Text Only | Print | Product List | Glossary Off
Versions: 1 2 3 4 5 6 7 8 9 10 11 12 13 14 15 16 17 18 19 20 21 22 23 24 25 26 27 28 29 30 31 32 33 34 35 36 37 38 39 40 41 42 43 44 45 46 47 48 49 50

000
ASUS41 KAKQ 281614
RWRAKQ

REGIONAL WEATHER ROUNDUP
NATIONAL WEATHER SERVICE WAKEFIELD VA
1200 PM EDT SAT MAR 28 2015

Note: "fair" indicates few or no clouds below 12,000 feet with no
significant weather and/or obstructions to visibility. * = Denotes
station may not report precipitation (e.g., rain,snow,etc.),
thunder or fog.

VAZ042-051-052>054-056-281700-
NORTHERN VIRGINIA

CITY           SKY/WX    TMP DP  RH WIND       PRES   REMARKS
WASH NATIONAL  MOSUNNY   36  10  34 NW20G29   30.02F
DULLES         MOSUNNY   31   8  38 NW17G30   30.03S WCI  19
FORT BELVOIR   SUNNY     33   4  29 NW22G29   30.03R WCI  21
QUANTICO       SUNNY     35  10  35 NW17G29   30.05R WCI  25
FREDERICKSBRG* SUNNY     37  10  32 NW14G24   30.02S
STAFFORD*      SUNNY     34   9  34 NW24G31   30.07R WCI  21
WARRENTON      SUNNY     35  17  49 NW15G32   30.04R
CULPEPER*      SUNNY     34   7  32 NW13G21   30.04S WCI  25
MANASSAS*      SUNNY     32  12  43 NW22G29   30.05R WCI  19
LEESBURG*      SUNNY     32  14  47 NW20G28   30.04S WCI  20
WINCHESTER     SUNNY     32   3  29 NW21G33   30.04S WCI  20
FRONT ROYAL*   PTSUNNY   30   9  40 W16G22    30.04F WCI  19
LURAY*         FAIR      32   9  37 W20G35    30.04S WCI  20
$$

VAZ048-049-060>072-079>083-281700-
CENTRAL AND SOUTH CENTRAL VIRGINIA

CITY           SKY/WX    TMP DP  RH WIND       PRES   REMARKS
RICHMOND       PTSUNNY   38  15  39 NW20G26   30.02S
CHESTERFIELD*  CLOUDY    36  12  38 NW13G21   30.03S
PETERSBURG*    CLOUDY    36  22  56 NW8       30.03S
HANOVER        CLOUDY    36  15  42 NW10G24   30.03F
TAPPAHANNOCK*  PTSUNNY   38   8  28 W10G21    30.01S
QUINTON*       CLOUDY    36  16  44 W10G21    30.01S
CHARLOTTSVILLE MOSUNNY   33   8  35 NW13G21   30.03S WCI  24
GORDONSVILLE*  FAIR      33   8  35 W13G25    30.03S WCI  23
ORANGE*        SUNNY     36  12  38 NW10G21   30.04S
LOUISA*        MOSUNNY   36  10  35 NW14G24   30.01S
BUMPASS*       CLOUDY    34  11  38 N7        30.02S
FARMVILLE*     PTSUNNY   38  13  35 N7        30.01F
CREWE*         CLOUDY    36  18  48 MISG      30.02S
FORT PICKETT*  CLOUDY    35  26  67 NW10      30.02S
CHASE CITY*    CLOUDY    37  16  42 W7        30.03S
CLARKSVILLE*   PTSUNNY   36  16  44 W7G23     30.04R
SOUTH HILL*    CLOUDY    35  21  55 NW7       30.08S
LAWRENCEVILLE* CLOUDY    32  29  89 N8        30.03S
EMPORIA*       LGT SNOW  32  30  93 W8        30.05R
$$

VAZ088>098-281700-
SOUTHEAST VIRGINIA

CITY           SKY/WX    TMP DP  RH WIND       PRES   REMARKS
NORFOLK        CLOUDY    39  18  42 NW9G17    29.99R
VIRGINIA BEACH PTSUNNY   42  21  43 N20G28    29.98R
NORFOLK NAVAL  NOT AVBL
WEST POINT*    PTSUNNY   40  10  28 NW9G20    30.03R
SALUDA*        PTSUNNY   36  16  43 NW17G26   29.99S
NEWPORT NEWS   CLOUDY    41  18  39 NW15G24   30.00
LANGLEY AFB    CLOUDY    38  18  44 NW13G18   29.99R
FORT EUSTIS    CLOUDY    38  20  49 N12G22    29.98S
WILLIAMSBURG*  PTSUNNY   43  21  42 W15G22    30.01S
HR EXEC AP*    PTSUNNY   41  23  48 NW8       30.01S
FRANKLIN*      CLOUDY    38  23  54 NW8       30.02S
WAKEFIELD      CLOUDY    37  19  48 W8G16     30.01S
$$

VAZ020-022-025-037-045-281700-
WEST CENTRAL AND SOUTHWEST VIRGINIA

CITY           SKY/WX    TMP DP  RH WIND       PRES   REMARKS
STAUNTON*      MOSUNNY   30   4  33 NW18G26   30.03F WCI  18
WAYNESBORO*    FAIR      29   7  39 NW15G23   30.00S WCI  18
HOT SPRINGS VA CLOUDY    17   4  56 NW15G29   29.86R WCI   2
LYNCHBURG      PTSUNNY   32  12  43 NW10      30.04R WCI  24
DANVILLE       SUNNY     38  13  35 N14       30.07R
SOUTH BOSTON*  FAIR      37  12  36 NW13G20   30.06S
MARTINSVILLE   SUNNY     36   9  32 NW14G24   30.08F
ROANOKE        MOSUNNY   33   7  33 NW22G30   30.06F WCI  21
BLACKSBURG     SUNNY     27   6  40 NW16G23   30.05S WCI  15
DUBLIN*        SUNNY     31   9  40 W16G22    30.04S WCI  20
MARION*        MOSUNNY   28   9  43 W20G30    30.04F WCI  15
HILLSVILLE*    SUNNY     26   5  42 NW18G29   29.98S WCI  12
RICHLANDS*     PTSUNNY   25   7  47 NW12G18   30.05S WCI  14
WISE*          FLURRIES  25  12  58 NW8       30.09S
ABINGDON*      PTSUNNY   30  14  52 NW14G22   30.10S WCI  19
$$

MDZ021>025-VAZ099-100-281700-
SOUTHERN MARYLAND AND THE DELMARVA PENINSULA

CITY           SKY/WX    TMP DP  RH WIND       PRES   REMARKS
PATUXENT RIVER MOSUNNY   36  10  34 NW22G32   29.98R WCI  25
BAY BRIDGE APT   N/A     32  14  47 NW15G25   29.99S WCI  22
LEONARDTOWN    SUNNY     34   9  35 W15G26    30.00R WCI  24
DOVER          LGT RAIN  32  27  80 W17G29    29.92S WCI  21
GEORGETOWN     CLOUDY    34  23  64 NW10G22   29.93S
EASTON         MOSUNNY   37  18  44 NW20G29   30.00S
CAMBRIDGE      SUNNY     36  12  38 NW16G26   29.95F
SALISBURY      SUNNY     37  18  46 NW23G31   29.93F
OCEAN CITY     PTSUNNY   37  24  59 NW18G25   29.92S
WALLOPS ISLAND MOSUNNY   40  17  39 N14G22    29.94R
ACCOMACK*      CLOUDY    37  14  38 NW20G28   29.97R
$$

NCZ012>017-030>032-281700-
NORTH CENTRAL AND EASTERN NORTH CAROLINA

CITY           SKY/WX    TMP DP  RH WIND       PRES   REMARKS
ROANOKE RAPIDS CLOUDY    36  30  80 N8G17     30.03F
RALEIGH        MOSUNNY   40  17  39 NW12G21   30.06R
ELIZABETH CITY CLOUDY    43  30  60 NW10      29.99R
AHOSKIE*       LGT SNOW  33  30  88 NW5       30.04R
EDENTON*       LGT RAIN  37  32  82 N9        30.01S
CURRITUCK*     PTSUNNY   42  24  50 NW8       29.99R
KILL DEVIL HLS CLOUDY    42  26  53 N10       29.97R
MANTEO         CLOUDY    43  29  56 N12       29.98R
CAPE HATTERAS  PTSUNNY   46  31  55 NW9       29.99R
TARBORO*       PTSUNNY   41  28  60 N10G20    30.04S
GOLDSBORO      CLOUDY    43  34  71 W8        30.02R
WASHINGTON     MOSUNNY   43  34  70 NW14G20   30.02R
GREENVILLE     CLOUDY    41  30  65 N8        30.04R
NEW BERN       PTSUNNY   46  33  60 NW10G18   30.02S
WILMINGTON     PTSUNNY   48  35  60 NW13      30.04R
$$

VAZ048-281700-
ELSEWHERE

CITY           SKY/WX    TMP DP  RH WIND       PRES   REMARKS
HARRISBURG PA  LGT SNOW  29  20  69 N16G25    29.99R FOG     WCI  17
BALTIMORE      PTSUNNY   33  14  45 W15G26    29.98F WCI  23
ANNAPOLIS      CLOUDY    32  15  49 NW14G25   29.99R WCI  22
ANDREWS AFB    SUNNY     32  10  40 NW20G26   29.98S WCI  20
PHILADELPHIA   PTSUNNY   38  17  42 N17G25    29.90S
HENDERSON NC   PTSUNNY   36  13  38 W12G21    30.05R
GREENSBORO     MOSUNNY   37  12  35 NW10G24   30.06R
ROCKY MOUNT    MOSUNNY   42  25  50 NW10      30.04R
$$

VAZ100-281700-
MARINE

STATION/POSITION TIME  TEMP    WIND        PRES    WAVE   SWELL
                       AIR SEA DIR/SP/G            HT/PER HT/PER
                 (UTC) (F)     (DEG/KT/KT) (MB)    (FT/S) (FT/S)
BRANDYWINE LGT   1512   32 40  310/ 21/ 25 1012.7R
CAPE MAY NJ      1500   36 43  310/ 15/ 26 1012.0R
LEWES DE         1500   34 43  300/ 22/ 26 1012.7R
15NM E FENWICK I 1550   34 40              1011.6R   6/ 5
OCEAN-CITY-INLET 1500   36 41  340/ 19/ 23 1012.6R
WACHAPREAGUE VA  1500   39 46  310/  6/ 15 1014.1R
THOMAS POINT MD  1600                        N/A
COVE POINT MD    1500   31     340/ 26/ 31 1014.7R
SOLOMONS ISLAND  1500      43                N/A
BISHOPS HEAD MD  1506   35 43  320/ 25/ 26 1014.2
PINEY POINT MD   1500          330/ 27/ 30   N/A
CAMBRIDGE MD     1500   34 44  320/ 19/ 24 1014.5F
LEWISETTA VA     1500   34 44              1015.3R
RAPPAHANNOCK LGT 1500          320/ 25/ 27 1015.3R
STINGRAY PT      1600   36 44  310/ 21/ 27   N/A     2/ 3
YORK RVR RNG VA  1500   36     340/ 18/ 21 1014.8R
YORKTOWN VA      1500   36 47  300/ 18/ 22 1015.3R
DOMINION TERM VA 1500   37     330/ 14/ 19 1015.3R
KIPTOPEKE VA     1500      49  340/ 22/ 25   N/A
CHES BAY BRIDGE  1506   37 45  310/ 22/ 24 1015.0R
CAPE HENRY VA    1500   37     320/ 22/ 25 1013.8R
CHESAPEAKE LGHT  1500   37     340/ 24/ 27 1014.9R
WILLOUBY STN VA  1500   37     330/ 17/ 22 1015.8R
S CRANEY ISL VA  1500          330/  8/ 15 1015.3R
CAPE HENRY BUOY  1528      40                N/A     6/ 5   2/11
1ST LANDING BUOY 1600   37     330/ 17/ 21 1015.1R   3/ 3
OFFSHORE WE BUOY 1511      40                N/A     7/ 5   3/ 9
64NM E OF VA BCH 1550   41 56  320/ 25/ 29 1013.0R   9/ 7   2/10
DUCK PIER NC     1500   40 42  340/ 16/ 20 1013.7R
44056 DUCK FRF   1511      42                N/A     6/ 7   2/11
OREGON INLET NC  1500   42 44  350/ 13/ 19 1014.7R
HATTERAS NC      1506   44 53  350/ 10/ 13 1015.3R
CAPE LOOKOUT NC  1600   46     300/  7/  9 1016.0R
$$



USA.gov is the U.S. government's official web portal to all federal, state and local government web resources and services.